G6UYG-13 Weather Reports


time (UTC)temp
C
wind
direction
speed
KPH
gust
KPH
rain 1hr
cm
rain 24hr
cm
rain mn
cm
humidity
%
barometer
mb
20260507192423 12 193 1.6 4.8 0.00 0.00 0.00 77 1012.4
20260507191723 12 201 1.6 4.8 0.00 0.00 0.00 77 1012.3
20260507191023 12 183 1.6 4.8 0.00 0.00 0.00 76 1012.2
20260507190323 12 180 0.0 9.7 0.00 0.00 0.00 76 1012.2
20260507185623 12 180 0.0 3.2 0.00 0.00 0.00 76 1012.2
20260507184923 12 183 1.6 9.7 0.00 0.00 0.00 75 1012.2
20260507184223 12 184 3.2 9.7 0.00 0.00 0.00 75 1012.2
20260507183523 12 221 3.2 14.5 0.00 0.00 0.00 74 1012.1
20260507182823 12 171 3.2 11.3 0.00 0.00 0.00 75 1012.1
20260507182123 12 205 1.6 9.7 0.00 0.00 0.00 74 1012.0
20260507181423 12 207 1.6 11.3 0.00 0.00 0.00 74 1012.1
20260507180723 12 178 1.6 4.8 0.00 0.00 0.00 75 1012.1
20260507180023 12 207 1.6 6.4 0.00 0.00 0.00 75 1012.1
20260507175323 12 217 1.6 8.0 0.00 0.00 0.00 75 1012.0
20260507174824 12 231 1.6 8.0 0.00 0.00 0.00 75 1012.0
20260507174623 12 231 1.6 8.0 0.00 0.00 0.00 75 1012.0
20260507173923 11 171 1.6 8.0 0.00 0.00 0.00 74 1012.1
20260507173223 11 190 3.2 8.0 0.00 0.00 0.00 74 1012.2
20260507172523 11 180 3.2 14.5 0.00 0.00 0.00 73 1012.1
20260507171823 11 185 1.6 12.9 0.00 0.00 0.00 74 1012.1
20260507171123 11 161 1.6 8.0 0.00 0.00 0.00 74 1012.1
20260507170423 11 185 1.6 6.4 0.00 0.00 0.00 74 1012.1
20260507165724 11 180 1.6 9.7 0.00 0.00 0.00 76 1012.1
20260507165024 11 174 3.2 14.5 0.00 0.00 0.00 77 1012.2
20260507164324 12 192 1.6 8.0 0.00 0.00 0.00 76 1012.1
20260507163624 12 188 3.2 8.0 0.00 0.00 0.00 76 1012.2
20260507163021 12 215 3.2 14.5 0.00 0.00 0.00 75 1012.2
20260507162924 12 215 3.2 14.5 0.00 0.00 0.00 75 1012.2
20260507162224 12 209 3.2 19.3 0.00 0.00 0.00 74 1012.2
20260507161524 13 184 6.4 16.1 0.00 0.00 0.00 70 1012.1
20260507161148 13 185 6.4 11.3 0.00 0.00 0.00 68 1012.1
20260507160824 13 185 6.4 11.3 0.00 0.00 0.00 68 1012.1
20260507160310 13 181 4.8 11.3 0.00 0.00 0.00 63 1012.0
20260507160124 13 181 4.8 11.3 0.00 0.00 0.00 63 1012.0
20260507155424 14 196 3.2 17.7 0.00 0.00 0.00 63 1012.0
20260507154724 14 211 3.2 12.9 0.00 0.00 0.00 61 1012.0
20260507154024 14 217 3.2 4.8 0.00 0.00 0.00 60 1011.9
20260507153958 15 202 3.2 8.0 0.00 0.00 0.00 60 1012.0
20260507153324 15 202 3.2 8.0 0.00 0.00 0.00 60 1012.0
20260507152624 15 217 1.6 9.7 0.00 0.00 0.00 59 1012.0
20260507152026 15 174 1.6 14.5 0.00 0.00 0.00 59 1012.1
20260507151924 15 174 1.6 14.5 0.00 0.00 0.00 59 1012.1
20260507151224 14 192 1.6 9.7 0.00 0.00 0.00 60 1012.0
20260507150524 14 211 1.6 4.8 0.00 0.00 0.00 60 1012.0
20260507145824 14 194 1.6 1.6 0.00 0.00 0.00 60 1012.1
20260507145124 14 187 1.6 6.4 0.00 0.00 0.00 59 1012.1
20260507144424 14 196 1.6 11.3 0.00 0.00 0.00 59 1012.2
20260507143724 15 138 1.6 6.4 0.00 0.00 0.00 58 1012.2
20260507143025 15 178 1.6 8.0 0.00 0.00 0.00 58 1012.3
20260507142324 15 203 1.6 9.7 0.00 0.00 0.00 59 1012.3
20260507141624 15 211 1.6 9.7 0.00 0.00 0.00 59 1012.4
20260507140924 15 232 1.6 6.4 0.00 0.00 0.00 59 1012.4
20260507140224 15 184 3.2 11.3 0.00 0.00 0.00 59 1012.6
20260507135524 15 176 3.2 6.4 0.00 0.00 0.00 59 1012.6
20260507134824 15 192 3.2 6.4 0.00 0.00 0.00 60 1012.6
20260507134124 15 188 4.8 11.3 0.00 0.00 0.00 58 1012.6
20260507133424 15 185 4.8 12.9 0.00 0.00 0.00 58 1012.7
20260507132724 15 157 4.8 12.9 0.00 0.00 0.00 56 1012.7
20260507132024 15 192 4.8 16.1 0.00 0.00 0.00 55 1012.8
20260507131324 15 236 4.8 6.4 0.00 0.00 0.00 54 1012.7
20260507130624 15 184 6.4 17.7 0.00 0.00 0.00 53 1012.7
20260507125924 16 242 4.8 14.5 0.00 0.00 0.00 53 1012.7
20260507125224 15 176 4.8 11.3 0.00 0.00 0.00 55 1012.6
20260507124524 15 178 3.2 14.5 0.00 0.00 0.00 53 1012.7
20260507123824 16 167 4.8 9.7 0.00 0.00 0.00 53 1012.7
20260507123124 16 168 6.4 20.9 0.00 0.00 0.00 53 1012.8
20260507122424 15 181 3.2 11.3 0.00 0.00 0.00 54 1012.8
20260507121725 15 230 3.2 12.9 0.00 0.00 0.00 54 1012.9
20260507121720 15 190 4.8 12.9 0.00 0.00 0.00 54 1013.0
20260507121024 15 190 4.8 12.9 0.00 0.00 0.00 54 1013.0
20260507120325 15 183 4.8 19.3 0.00 0.00 0.00 54 1013.1
20260507115625 15 136 6.4 19.3 0.00 0.00 0.00 53 1013.1
20260507114925 14 178 6.4 17.7 0.00 0.00 0.00 56 1013.1
20260507114225 14 161 4.8 16.1 0.00 0.00 0.00 56 1013.1
20260507113525 14 198 4.8 17.7 0.00 0.00 0.00 57 1013.2
20260507112825 13 227 0.0 12.9 0.00 0.00 0.00 61 1013.3
20260507112522 13 132 1.6 0.0 0.00 0.00 0.00 64 1013.3
20260507112125 13 132 1.6 0.0 0.00 0.00 0.00 64 1013.3
20260507111425 13 164 1.6 8.0 0.00 0.00 0.00 69 1013.3
20260507110725 13 168 1.6 8.0 0.00 0.00 0.00 69 1013.4
20260507110025 12 169 1.6 8.0 0.00 0.00 0.00 70 1013.4
20260507105325 12 198 1.6 8.0 0.00 0.00 0.00 71 1013.5
20260507104625 12 187 1.6 6.4 0.00 0.00 0.00 72 1013.6
20260507103925 12 202 1.6 3.2 0.00 0.00 0.00 73 1013.6
20260507103225 11 115 1.6 3.2 0.00 0.00 0.00 73 1013.6
20260507102525 11 201 1.6 6.4 0.00 0.00 0.00 75 1013.7
20260507101825 11 192 3.2 11.3 0.00 0.00 0.00 75 1013.8
20260507101125 11 173 1.6 6.4 0.00 0.00 0.00 77 1013.8
20260507100425 10 130 1.6 4.8 0.00 0.00 0.00 78 1013.8
20260507095725 10 163 1.6 11.3 0.00 0.00 0.00 79 1013.8
20260507095025 10 120 1.6 4.8 0.00 0.00 0.00 79 1013.8
20260507094325 10 188 1.6 4.8 0.00 0.00 0.00 79 1013.7
20260507093626 9 222 1.6 4.8 0.00 0.00 0.00 80 1013.7
20260507092925 9 186 1.6 6.4 0.00 0.00 0.00 80 1013.7
20260507092225 9 171 1.6 9.7 0.00 0.00 0.00 81 1013.7
20260507091525 9 157 1.6 6.4 0.00 0.00 0.00 81 1013.7
20260507090825 8 188 3.2 8.0 0.00 0.00 0.00 81 1013.8
20260507090125 8 173 3.2 11.3 0.00 0.00 0.00 82 1013.8
20260507085425 8 181 3.2 9.7 0.00 0.00 0.00 83 1013.8
20260507084725 8 169 3.2 8.0 0.00 0.00 0.00 83 1013.7
20260507084025 8 170 3.2 8.0 0.00 0.00 0.00 84 1013.8
20260507083325 8 166 3.2 8.0 0.00 0.00 0.00 84 1013.8
20260507082625 8 207 3.2 8.0 0.00 0.00 0.00 85 1013.8
20260507081925 8 178 3.2 12.9 0.00 0.00 0.00 86 1013.8
20260507081225 8 183 3.2 11.3 0.00 0.00 0.00 86 1013.8
20260507080525 8 203 3.2 6.4 0.00 0.00 0.00 86 1013.8
20260507075825 7 165 1.6 4.8 0.00 0.00 0.00 87 1013.8
20260507075125 7 207 1.6 6.4 0.00 0.00 0.00 86 1013.8
20260507074425 7 174 1.6 4.8 0.00 0.00 0.00 87 1013.7
20260507073725 7 173 0.0 4.8 0.00 0.00 0.00 87 1013.7
20260507073025 7 155 0.0 3.2 0.00 0.00 0.00 87 1013.7
20260507072326 7 175 0.0 4.8 0.00 0.00 0.00 88 1013.7
20260507071626 7 178 1.6 6.4 0.00 0.00 0.00 88 1013.6
20260507070926 7 174 1.6 1.6 0.00 0.00 0.00 88 1013.6
20260507070226 7 177 0.0 6.4 0.00 0.00 0.00 88 1013.5
20260507065526 7 148 0.0 1.6 0.00 0.00 0.00 88 1013.5
20260507064826 7 127 1.6 4.8 0.00 0.00 0.00 88 1013.4
20260507064126 7 166 1.6 6.4 0.00 0.00 0.00 88 1013.5
20260507063426 7 158 1.6 9.7 0.00 0.00 0.00 88 1013.4
20260507062726 7 167 1.6 6.4 0.00 0.00 0.00 88 1013.4
20260507062026 7 224 1.6 4.8 0.00 0.00 0.00 88 1013.4
20260507061326 7 144 1.6 3.2 0.00 0.00 0.00 88 1013.4
20260507060626 7 183 1.6 1.6 0.00 0.00 0.00 88 1013.3
20260507055926 7 188 0.0 4.8 0.00 0.00 0.00 88 1013.3
20260507055226 7 175 1.6 4.8 0.00 0.00 0.00 88 1013.4
20260507054526 7 177 1.6 0.0 0.00 0.00 0.00 88 1013.3
20260507053826 7 172 1.6 3.2 0.00 0.00 0.00 88 1013.3
20260507053126 7 168 1.6 8.0 0.00 0.00 0.00 88 1013.3
20260507052426 7 190 1.6 3.2 0.00 0.00 0.00 88 1013.3
20260507051726 7 139 1.6 4.8 0.00 0.00 0.00 88 1013.3
20260507051026 7 152 1.6 4.8 0.00 0.00 0.00 88 1013.3
20260507050326 7 167 1.6 6.4 0.00 0.00 0.00 88 1013.3
20260507045626 7 162 1.6 4.8 0.00 0.00 0.00 88 1013.3
20260507044926 7 141 0.0 3.2 0.00 0.00 0.00 88 1013.2
20260507044226 7 144 0.0 6.4 0.00 0.00 0.00 88 1013.2
20260507043526 7 165 0.0 0.0 0.00 0.00 0.00 88 1013.2
20260507042826 7 169 0.0 0.0 0.00 0.00 0.00 88 1013.2
20260507042126 7 170 0.0 0.0 0.00 0.00 0.00 87 1013.2
20260507041426 7 171 0.0 0.0 0.00 0.00 0.00 87 1013.2
20260507040726 7 171 0.0 0.0 0.00 0.00 0.00 87 1013.2
20260507040026 7 171 0.0 3.2 0.00 0.00 0.00 87 1013.2
20260507035326 7 171 0.0 3.2 0.00 0.00 0.00 87 1013.2
20260507034626 7 169 0.0 3.2 0.00 0.00 0.00 87 1013.2
20260507033926 7 169 1.6 6.4 0.00 0.00 0.00 87 1013.2
20260507033226 7 166 1.6 4.8 0.00 0.00 0.00 86 1013.3
20260507032526 7 170 0.0 3.2 0.00 0.00 0.00 86 1013.3
20260507031826 7 184 0.0 3.2 0.00 0.00 0.00 86 1013.2
20260507031126 7 179 0.0 1.6 0.00 0.00 0.00 86 1013.3
20260507030426 7 178 1.6 6.4 0.00 0.00 0.00 86 1013.3
20260507025726 7 163 1.6 8.0 0.00 0.00 0.00 86 1013.3
20260507025026 7 163 0.0 3.2 0.00 0.00 0.00 86 1013.4
20260507024327 7 156 0.0 1.6 0.00 0.00 0.00 86 1013.4
20260507023627 7 154 1.6 4.8 0.00 0.00 0.00 86 1013.3
20260507022927 7 140 1.6 3.2 0.00 0.00 0.00 86 1013.3
20260507022227 7 113 1.6 9.7 0.00 0.00 0.00 85 1013.3
20260507021527 7 177 0.0 3.2 0.00 0.00 0.00 86 1013.3
20260507020827 7 171 0.0 1.6 0.00 0.00 0.00 85 1013.4
20260507020127 7 166 1.6 3.2 0.00 0.00 0.00 85 1013.4
20260507015427 7 161 1.6 4.8 0.00 0.00 0.00 85 1013.4
20260507014727 7 176 1.6 4.8 0.00 0.00 0.00 85 1013.5
20260507014027 7 175 1.6 4.8 0.00 0.00 0.00 85 1013.5
20260507013327 7 175 1.6 6.4 0.00 0.00 0.00 85 1013.4
20260507012627 7 108 0.0 9.7 0.00 0.00 0.00 85 1013.4
20260507011927 7 178 1.6 4.8 0.00 0.00 0.00 85 1013.5
20260507011227 7 173 1.6 6.4 0.00 0.00 0.00 85 1013.5
20260507010527 7 195 1.6 8.0 0.00 0.00 0.00 85 1013.4
20260507005827 7 153 1.6 4.8 0.00 0.00 0.00 84 1013.6
20260507005127 7 162 1.6 6.4 0.00 0.00 0.00 84 1013.6
20260507004427 7 139 1.6 4.8 0.00 0.00 0.00 84 1013.6
20260507003727 7 169 1.6 6.4 0.00 0.00 0.00 84 1013.4
20260507003027 7 104 1.6 8.0 0.00 0.00 0.00 84 1013.5
20260507002327 7 158 1.6 4.8 0.00 0.00 0.00 83 1013.6
20260507001627 7 167 0.0 8.0 0.00 0.00 0.00 84 1013.6
20260507000927 7 140 0.0 1.6 0.00 0.00 0.00 83 1013.6
20260507000227 7 139 1.6 3.2 0.00 0.00 0.00 83 1013.6
20260506235527 7 165 0.0 4.8 0.00 0.00 0.00 83 1013.6
20260506234827 7 167 1.6 8.0 0.00 0.00 0.00 82 1013.7
20260506234127 7 170 1.6 3.2 0.00 0.00 0.00 82 1013.6
20260506233427 7 186 1.6 4.8 0.00 0.00 0.00 82 1013.6
20260506232727 7 173 1.6 8.0 0.00 0.00 0.00 82 1013.6
20260506232027 7 159 1.6 4.8 0.00 0.00 0.00 81 1013.6
20260506231327 7 157 1.6 6.4 0.00 0.00 0.00 81 1013.6
20260506230627 7 152 1.6 4.8 0.00 0.00 0.00 81 1013.6
20260506225927 8 106 1.6 4.8 0.00 0.00 0.00 80 1013.6
20260506225227 8 142 1.6 3.2 0.00 0.00 0.00 80 1013.5
20260506224527 8 184 1.6 8.0 0.00 0.00 0.00 80 1013.5
20260506223827 8 180 0.0 1.6 0.00 0.00 0.00 79 1013.6
20260506223127 8 179 1.6 4.8 0.00 0.00 0.00 79 1013.6
20260506222427 8 131 1.6 4.8 0.00 0.00 0.00 79 1013.6
20260506221727 8 186 1.6 6.4 0.00 0.00 0.00 78 1013.5
20260506221027 8 181 1.6 8.0 0.00 0.00 0.00 78 1013.4
20260506220327 8 186 1.6 6.4 0.00 0.00 0.00 78 1013.4
20260506215628 8 192 0.0 4.8 0.00 0.00 0.00 78 1013.4
20260506214928 8 164 0.0 6.4 0.00 0.00 0.00 78 1013.3
20260506214228 8 167 0.0 4.8 0.00 0.00 0.00 78 1013.3
20260506213528 8 164 0.0 3.2 0.00 0.00 0.00 77 1013.2
20260506212828 8 163 0.0 3.2 0.00 0.00 0.00 77 1013.2
20260506212128 8 158 0.0 3.2 0.00 0.00 0.00 77 1013.1
20260506211428 8 158 0.0 6.4 0.00 0.00 0.00 76 1013.0
20260506210728 8 138 0.0 3.2 0.00 0.00 0.00 76 1012.9
20260506210028 8 166 0.0 3.2 0.00 0.00 0.00 75 1013.0
20260506205328 8 166 0.0 4.8 0.00 0.00 0.00 74 1012.9
20260506204628 9 161 0.0 1.6 0.00 0.00 0.00 73 1012.9
20260506203928 9 161 0.0 3.2 0.00 0.00 0.00 73 1012.8
20260506203228 9 157 0.0 0.0 0.00 0.00 0.00 72 1012.8
20260506202528 10 157 0.0 3.2 0.00 0.00 0.00 71 1012.7
20260506201828 10 159 0.0 4.8 0.00 0.00 0.00 70 1012.7
20260506201128 10 199 0.0 4.8 0.00 0.00 0.00 68 1012.5
20260506200428 10 161 1.6 6.4 0.00 0.00 0.00 67 1012.4
20260506195728 10 163 1.6 8.0 0.00 0.00 0.00 66 1012.5
20260506195028 10 174 3.2 6.4 0.00 0.00 0.00 65 1012.4
20260506194328 11 103 1.6 6.4 0.00 0.00 0.00 64 1012.4
20260506193628 11 148 1.6 6.4 0.00 0.00 0.00 63 1012.2